GW7758 Weather Reports


Display with metric or nautical units.
time (UTC)temp
F
wind
direction
speed
MPH
gust
MPH
rain 1hr
in
rain 24hr
in
rain mn
in
humidity
%
barometer
mb
20260903013957 61 0.0 1.0 0.00 0.00 0.00 76 1024.4
20260903012957 62 0.0 2.0 0.00 0.00 0.00 74 1024.4
20260903011959 62 115 0.0 2.0 0.00 0.00 0.00 74 1024.4
20260903010958 62 1.0 3.0 0.00 0.00 0.00 74 1024.4
20260903005959 62 1.0 2.0 0.00 0.00 0.00 72 1024.3
20260903004955 63 0.0 2.0 0.00 0.00 0.00 69 1024.2
20260903003956 64 275 1.0 3.0 0.00 0.00 0.00 68 1024.2
20260903001957 64 220 1.0 5.0 0.00 0.00 0.00 67 1024.3
20260903000958 64 166 1.0 3.0 0.00 0.00 0.00 66 1024.3
20260902235958 65 0.0 3.0 0.00 0.00 0.00 67 1024.3
20260902234957 65 1.0 2.0 0.00 0.00 0.00 66 1024.4
20260902233957 65 188 0.0 2.0 0.00 0.00 0.00 65 1024.3
20260902233000 66 209 1.0 2.0 0.00 0.00 0.00 63 1024.4
20260902232000 66 174 1.0 2.0 0.00 0.00 0.00 62 1024.3
20260902230959 66 201 0.0 2.0 0.00 0.00 0.00 62 1024.3
20260902230000 67 135 0.0 1.0 0.00 0.00 0.00 62 1024.3
20260902223957 67 237 2.0 4.0 0.00 0.00 0.00 61 1024.3
20260902222957 67 242 1.0 3.0 0.00 0.00 0.00 61 1024.4
20260902221958 67 249 1.0 3.0 0.00 0.00 0.00 60 1024.3
20260902220957 67 256 1.0 2.0 0.00 0.00 0.00 60 1024.3
20260902215957 67 282 0.0 2.0 0.00 0.00 0.00 60 1024.2
20260902214957 67 334 0.0 2.0 0.00 0.00 0.00 60 1024.2
20260902213958 67 2.0 3.0 0.00 0.00 0.00 59 1024.1
20260902212956 68 304 2.0 3.0 0.00 0.00 0.00 59 1024.0
20260902211956 68 278 2.0 4.0 0.00 0.00 0.00 59 1024.0
20260902210959 68 299 2.0 4.0 0.00 0.00 0.00 58 1024.0
20260902205959 68 289 2.0 4.0 0.00 0.00 0.00 58 1023.8
20260902204959 68 314 2.0 6.0 0.00 0.00 0.00 57 1023.7
20260902204003 68 288 2.0 4.0 0.00 0.00 0.00 57 1023.7
20260902202957 69 306 2.0 5.0 0.00 0.00 0.00 57 1023.7
20260902202000 69 305 2.0 5.0 0.00 0.00 0.00 56 1023.7
20260902200958 69 314 2.0 4.0 0.00 0.00 0.00 55 1023.6
20260902200002 69 272 2.0 4.0 0.00 0.00 0.00 54 1023.6
20260902194958 70 289 3.0 7.0 0.00 0.00 0.00 53 1023.6
20260902194002 70 303 2.0 4.0 0.00 0.00 0.00 54 1023.5
20260902192959 70 325 2.0 6.0 0.00 0.00 0.00 53 1023.5
20260902191957 71 315 2.0 6.0 0.00 0.00 0.00 52 1023.3
20260902191001 71 299 2.0 5.0 0.00 0.00 0.00 52 1023.3
20260902190002 71 286 3.0 8.0 0.00 0.00 0.00 52 1023.2
20260902185003 72 295 3.0 8.0 0.00 0.00 0.00 51 1023.0
20260902183958 72 332 4.0 10.0 0.00 0.00 0.00 51 1022.9
20260902183004 72 270 2.0 5.0 0.00 0.00 0.00 51 1022.7
20260902181959 73 297 1.0 2.0 0.00 0.00 0.00 50 1022.6
20260902181005 73 0.0 2.0 0.00 0.00 0.00 49 1022.4
20260902175959 73 1.0 2.0 0.00 0.00 0.00 49 1022.4
20260902174957 73 302 2.0 6.0 0.00 0.00 0.00 48 1022.3
20260902174003 74 287 2.0 5.0 0.00 0.00 0.00 47 1022.0
20260902173002 74 316 2.0 5.0 0.00 0.00 0.00 46 1022.0
20260902172012 74 291 2.0 6.0 0.00 0.00 0.00 45 1022.2
20260902170958 74 299 2.0 6.0 0.00 0.00 0.00 45 1022.0
20260902165958 74 284 2.0 5.0 0.00 0.00 0.00 45 1022.0
20260902165003 75 248 3.0 7.0 0.00 0.00 0.00 43 1022.0
20260902163958 76 286 3.0 7.0 0.00 0.00 0.00 41 1022.0
20260902163002 76 269 4.0 9.0 0.00 0.00 0.00 41 1022.0
20260902162000 76 261 3.0 7.0 0.00 0.00 0.00 40 1022.0
20260902161000 77 286 4.0 11.0 0.00 0.00 0.00 40 1022.0
20260902160000 78 247 3.0 8.0 0.00 0.00 0.00 39 1021.9
20260902155000 77 242 4.0 10.0 0.00 0.00 0.00 40 1021.9
20260902154003 77 293 4.0 12.0 0.00 0.00 0.00 39 1021.9
20260902152959 77 208 4.0 11.0 0.00 0.00 0.00 40 1022.0
20260902151959 78 195 4.0 12.0 0.00 0.00 0.00 39 1022.2
20260902151005 77 272 5.0 10.0 0.00 0.00 0.00 40 1022.2
20260902150004 78 287 3.0 9.0 0.00 0.00 0.00 39 1022.2
20260902145003 78 294 5.0 11.0 0.00 0.00 0.00 39 1022.3
20260902143959 78 231 5.0 12.0 0.00 0.00 0.00 40 1022.3
20260902143005 78 219 4.0 10.0 0.00 0.00 0.00 40 1022.3
20260902142000 77 213 5.0 13.0 0.00 0.00 0.00 42 1022.3
20260902141006 77 228 5.0 14.0 0.00 0.00 0.00 42 1022.4
20260902140004 78 292 5.0 13.0 0.00 0.00 0.00 41 1022.4
20260902135010 78 204 5.0 13.0 0.00 0.00 0.00 40 1022.5
20260902134008 78 233 5.0 14.0 0.00 0.00 0.00 40 1022.5
20260902133011 78 308 6.0 13.0 0.00 0.00 0.00 39 1022.6
20260902132002 78 221 4.0 9.0 0.00 0.00 0.00 41 1022.7
20260902131011 77 253 3.0 9.0 0.00 0.00 0.00 43 1022.7
20260902130006 76 247 5.0 10.0 0.00 0.00 0.00 45 1022.7
20260902124959 77 297 5.0 12.0 0.00 0.00 0.00 42 1022.7
20260902124005 77 233 6.0 16.0 0.00 0.00 0.00 42 1022.8
20260902123004 77 225 6.0 16.0 0.00 0.00 0.00 42 1022.9
20260902122006 77 272 6.0 14.0 0.00 0.00 0.00 43 1023.1
20260902121001 77 252 5.0 16.0 0.00 0.00 0.00 42 1023.1
20260902115956 75 298 4.0 11.0 0.00 0.00 0.00 45 1023.2
20260902114955 75 277 4.0 12.0 0.00 0.00 0.00 47 1023.4
20260902113956 75 200 3.0 9.0 0.00 0.00 0.00 47 1023.3
20260902112955 74 203 3.0 9.0 0.00 0.00 0.00 48 1023.4
20260902111955 75 294 3.0 8.0 0.00 0.00 0.00 46 1023.5
20260902110954 74 223 3.0 8.0 0.00 0.00 0.00 49 1023.6
20260902105957 74 2.0 6.0 0.00 0.00 0.00 49 1023.7
20260902104954 73 233 2.0 6.0 0.00 0.00 0.00 54 1023.8
20260902103954 72 186 4.0 7.0 0.00 0.00 0.00 54 1023.8
20260902102955 72 168 3.0 7.0 0.00 0.00 0.00 55 1023.8
20260902101955 72 177 2.0 7.0 0.00 0.00 0.00 55 1024.0
20260902100953 72 102 3.0 8.0 0.00 0.00 0.00 56 1024.1
20260902094956 70 155 2.0 7.0 0.00 0.00 0.00 59 1024.2
20260902094011 69 143 3.0 8.0 0.00 0.00 0.00 59 1024.1
20260902092956 69 126 3.0 7.0 0.00 0.00 0.00 59 1024.1
20260902090954 70 65 2.0 5.0 0.00 0.00 0.00 59 1024.2
20260902085954 70 136 1.0 4.0 0.00 0.00 0.00 59 1024.2
20260902084956 69 206 1.0 6.0 0.00 0.00 0.00 61 1024.2
20260902082955 67 206 1.0 4.0 0.00 0.00 0.00 63 1024.2
20260902081954 67 235 1.0 4.0 0.00 0.00 0.00 62 1024.2
20260902080955 66 30 2.0 5.0 0.00 0.00 0.00 64 1024.0
20260902074958 66 126 2.0 6.0 0.00 0.00 0.00 64 1024.0
20260902073958 65 211 2.0 4.0 0.00 0.00 0.00 65 1024.0
20260902072959 64 217 2.0 5.0 0.00 0.00 0.00 66 1024.0
20260902071957 65 125 2.0 5.0 0.00 0.00 0.00 65 1024.1
20260902070955 64 190 2.0 4.0 0.00 0.00 0.00 67 1024.1
20260902065955 63 191 1.0 4.0 0.00 0.00 0.00 69 1024.1
20260902064959 63 182 1.0 3.0 0.00 0.00 0.00 69 1024.0
20260902062958 62 189 2.0 5.0 0.00 0.00 0.00 72 1024.0
20260902061956 61 214 2.0 4.0 0.00 0.00 0.00 74 1024.1
20260902060955 60 207 2.0 4.0 0.00 0.00 0.00 75 1024.1
20260902055957 59 131 2.0 4.0 0.00 0.00 0.00 77 1024.0
20260902054956 59 153 2.0 3.0 0.00 0.00 0.00 78 1023.8
20260902053956 58 136 2.0 4.0 0.00 0.00 0.00 80 1023.7
20260902051957 57 214 1.0 4.0 0.00 0.00 0.00 83 1023.6
20260902050959 57 184 1.0 3.0 0.00 0.00 0.00 84 1023.6
20260902045954 56 104 1.0 3.0 0.00 0.00 0.00 84 1023.6
20260902044956 56 203 1.0 3.0 0.00 0.00 0.00 85 1023.7
20260902043958 56 146 1.0 3.0 0.00 0.00 0.00 85 1023.6
20260902042958 56 116 1.0 3.0 0.00 0.00 0.00 85 1023.6
20260902041959 56 118 1.0 3.0 0.00 0.00 0.00 85 1023.5
20260902040956 57 106 1.0 2.0 0.00 0.00 0.00 83 1023.6
20260902035956 57 140 1.0 2.0 0.00 0.00 0.00 83 1023.6
20260902034955 57 191 1.0 2.0 0.00 0.00 0.00 83 1023.6
20260902033959 57 142 1.0 3.0 0.00 0.00 0.00 83 1023.6
20260902032956 57 169 1.0 3.0 0.00 0.00 0.00 83 1023.7
20260902032000 57 191 1.0 3.0 0.00 0.00 0.00 83 1023.7
20260902030957 57 144 1.0 2.0 0.00 0.00 0.00 82 1023.7
20260902025959 58 136 1.0 2.0 0.00 0.00 0.00 82 1023.7
20260902024955 58 1.0 2.0 0.00 0.00 0.00 82 1023.7
20260902023956 58 133 1.0 2.0 0.00 0.00 0.00 82 1023.8
20260902023000 58 0.0 2.0 0.00 0.00 0.00 81 1023.7
20260902021958 58 0.0 2.0 0.00 0.00 0.00 80 1023.6
20260902020956 59 92 1.0 2.0 0.00 0.00 0.00 79 1023.7
20260902015958 59 193 1.0 2.0 0.00 0.00 0.00 79 1023.7
20260902014959 59 163 1.0 3.0 0.00 0.00 0.00 78 1023.8